time_stamp(utc),avg(mph),gust(mph),direction(deg),12m_air_temp(f),sonic_u(cm/s),sonic_v(cm/s),sonic_w(cm/s),pressure,2m_air_temp(f),pyranometer(W/m^2)
"2017-06-11 00:00:21+00",16.1,18.1,,71,-366,-606,-19,1016.06,71.1,0
"2017-06-11 00:05:21+00",15.5,20.5,,71.2,-429,-564,25,1016.21,71,0
"2017-06-11 00:10:21+00",17.4,20.4,,71.5,-462,-634,9,1016.06,71.1,0
"2017-06-11 00:15:21+00",17.7,20.7,,71.3,-516,-627,21,1016.13,71,0
"2017-06-11 00:20:21+00",19.0,22.0,,71.3,-580,-704,-21,1016.13,70.9,0
"2017-06-11 00:25:21+00",17.3,20.3,,71.3,-579,-630,-28,1016.31,70.8,0
"2017-06-11 00:30:21+00",19.5,21.5,,71.2,-579,-676,-4,1016.21,70.7,0
"2017-06-11 00:35:21+00",18.2,21.2,,71.1,-533,-635,15,1016.27,70.6,0
"2017-06-11 00:40:21+00",19.0,23.0,,71.1,-557,-664,8,1016.28,70.6,0
"2017-06-11 00:45:21+00",19.0,23.0,,71.1,-568,-652,4,1016.31,70.5,0
"2017-06-11 00:50:21+00",18.3,21.3,,70.9,-545,-643,21,1016.36,70.4,0
"2017-06-11 00:55:21+00",17.0,20.0,,70.9,-506,-596,16,1016.43,70.3,0
"2017-06-11 01:00:21+00",19.8,21.8,,70.9,-593,-685,4,1016.43,70.3,0
"2017-06-11 01:05:21+00",19.5,21.5,,70.8,-575,-683,8,1016.37,70.2,0
"2017-06-11 01:10:21+00",18.4,21.4,,70.7,-540,-646,-3,1016.56,70.2,0
"2017-06-11 01:15:21+00",18.4,22.4,,70.7,-555,-633,14,1016.59,70.2,0
"2017-06-11 01:20:21+00",17.8,19.8,,70.7,-548,-601,32,1016.67,70.1,0
"2017-06-11 01:25:21+00",18.9,22.9,,70.6,-584,-628,20,1016.71,70,0
"2017-06-11 01:30:21+00",18.7,21.7,,70.6,-570,-637,11,1016.67,70,0
"2017-06-11 01:35:21+00",18.2,21.2,,70.4,-577,-593,-1,1016.76,69.9,0
"2017-06-11 01:40:21+00",17.9,20.9,,70.3,-545,-609,-3,1016.84,69.8,0
"2017-06-11 01:45:21+00",16.9,18.9,,70.2,-488,-595,9,1016.97,69.7,0
"2017-06-11 01:50:21+00",14.5,17.5,,70.1,-433,-509,21,1017.05,69.6,0
"2017-06-11 01:55:21+00",16.2,18.2,,70.3,-502,-528,14,1017.11,69.6,0
"2017-06-11 02:00:21+00",16.7,19.7,,70.4,-502,-570,1,1017.23,69.7,0
"2017-06-11 02:05:21+00",16.1,18.1,,70.4,-488,-554,22,1017.25,69.7,0
"2017-06-11 02:10:21+00",16.5,19.5,,70.4,-504,-551,7,1017.29,69.7,0
"2017-06-11 02:15:21+00",17.1,19.1,,70.5,-517,-580,12,1017.33,69.7,0
"2017-06-11 02:20:21+00",18.9,20.9,,70.7,-600,-602,3,1017.39,69.8,0
"2017-06-11 02:25:21+00",18.2,21.2,,70.8,-593,-535,15,1017.45,70,0
"2017-06-11 02:30:21+00",18.2,23.2,,70.7,-592,-538,30,1017.55,70,0
"2017-06-11 02:35:21+00",19.0,21.0,,70.8,-603,-600,23,1017.45,70,0
"2017-06-11 02:40:21+00",17.1,21.1,,70.7,-528,-574,20,1017.46,70,0
"2017-06-11 02:45:21+00",17.6,18.6,,70.6,-542,-591,10,1017.47,69.9,0
"2017-06-11 02:50:21+00",15.1,18.1,,70.4,-474,-501,17,1017.57,69.8,0
"2017-06-11 02:55:21+00",16.1,17.1,,70.4,-481,-558,0,1017.46,69.7,0
"2017-06-11 03:00:21+00",15.0,17.0,,70.2,-448,-522,14,1017.51,69.6,0
"2017-06-11 03:05:21+00",15.8,18.8,,70.2,-480,-542,3,1017.49,69.5,0
"2017-06-11 03:10:21+00",15.4,17.4,,70.1,-463,-534,3,1017.51,69.4,0
"2017-06-11 03:15:21+00",15.2,17.2,,70.1,-442,-529,10,1017.48,69.3,0
"2017-06-11 03:20:21+00",14.6,17.6,,70.1,-429,-516,14,1017.43,69.3,0
"2017-06-11 03:25:21+00",14.4,16.4,,70.2,-426,-509,7,1017.45,69.3,0
"2017-06-11 03:30:21+00",14.2,16.2,,70.3,-416,-504,15,1017.44,69.3,0
"2017-06-11 03:35:21+00",14.0,17.0,,70.4,-396,-500,4,1017.53,69.4,0
"2017-06-11 03:40:21+00",15.2,19.2,,70.6,-436,-537,7,1017.46,69.5,0
"2017-06-11 03:45:21+00",17.0,19.0,,70.5,-496,-595,-1,1017.33,69.5,0
"2017-06-11 03:50:21+00",16.6,18.6,,70.6,-491,-575,1,1017.35,69.6,0
"2017-06-11 03:55:21+00",14.8,16.8,,70.4,-442,-508,18,1017.33,69.6,0
"2017-06-11 04:00:21+00",16.3,18.3,,70.5,-492,-560,1,1017.39,69.5,0
"2017-06-11 04:05:21+00",15.4,19.4,,70.3,-455,-542,12,1017.29,69.5,0
"2017-06-11 04:10:21+00",15.8,17.8,,70.4,-470,-548,-3,1017.33,69.4,0
"2017-06-11 04:15:21+00",15.2,18.2,,70.3,-451,-521,-1,1017.28,69.4,0
"2017-06-11 04:20:21+00",15.6,18.6,,70.4,-486,-503,7,1017.45,69.3,0
"2017-06-11 04:25:21+00",15.4,17.4,,70.5,-487,-496,3,1017.31,69.4,0
"2017-06-11 04:30:21+00",14.6,17.6,,70.5,-455,-476,8,1017.43,69.4,0
"2017-06-11 04:35:21+00",14.9,16.9,,70.7,-448,-508,2,1017.39,69.5,0
"2017-06-11 04:40:21+00",14.7,16.7,,70.6,-440,-501,0,1017.39,69.5,0
"2017-06-11 04:45:21+00",15.0,17.0,,70.7,-468,-485,-6,1017.39,69.5,0
"2017-06-11 04:50:21+00",14.9,16.9,,70.7,-476,-472,3,1017.37,69.5,0
"2017-06-11 04:55:21+00",13.1,14.1,,70.5,-408,-426,4,1017.42,69.4,0
"2017-06-11 05:00:21+00",13.6,15.6,,70.2,-409,-473,8,1017.45,69.3,0
"2017-06-11 05:05:21+00",14.6,15.6,,70,-427,-517,1,1017.36,69.1,0
"2017-06-11 05:10:21+00",14.6,17.6,,69.8,-400,-529,0,1017.31,68.9,0
"2017-06-11 05:15:21+00",14.4,16.4,,69.7,-371,-537,-7,1017.31,68.8,0
"2017-06-11 05:20:21+00",14.1,16.1,,69.4,-386,-516,4,1017.29,68.6,0
"2017-06-11 05:25:21+00",15.0,16.0,,69.2,-425,-538,1,1017.24,68.5,0
"2017-06-11 05:30:21+00",15.4,17.4,,69.1,-460,-531,4,1017.17,68.4,0
"2017-06-11 05:35:21+00",14.6,18.6,,68.9,-443,-480,11,1017.24,68.3,0
"2017-06-11 05:40:21+00",15.2,17.2,,68.9,-453,-524,6,1017.27,68.2,0
"2017-06-11 05:45:21+00",13.8,15.8,,68.8,-423,-455,15,1017.23,68.1,0
"2017-06-11 05:50:21+00",14.3,17.3,,68.7,-455,-454,6,1017.17,68.1,0
"2017-06-11 05:55:21+00",14.1,16.1,,68.7,-443,-461,7,1017.19,68,0
"2017-06-11 06:00:21+00",14.8,16.8,,68.7,-464,-483,0,1017.13,68,0
"2017-06-11 06:05:21+00",14.1,15.1,,68.6,-440,-455,1,1017.11,67.9,0
"2017-06-11 06:10:21+00",13.2,15.2,,68.5,-433,-387,5,1017.16,67.9,0
"2017-06-11 06:15:21+00",13.7,15.7,,68.5,-455,-379,8,1017.16,67.8,0
"2017-06-11 06:20:21+00",11.9,13.9,,68.3,-417,-311,11,1017.3,67.7,0
"2017-06-11 06:25:21+00",12.6,14.6,,68.4,-430,-346,12,1017.25,67.6,0
"2017-06-11 06:30:21+00",11.9,14.9,,68.4,-415,-313,4,1017.26,67.6,0
"2017-06-11 06:35:21+00",10.8,12.8,,68.4,-397,-269,16,1017.3,67.5,0
"2017-06-11 06:40:21+00",10.2,12.2,,68.3,-392,-241,16,1017.3,67.4,0
"2017-06-11 06:45:21+00",8.7,10.7,,68.3,-349,-196,22,1017.3,67.4,0
"2017-06-11 06:50:21+00",8.6,9.6,,68.2,-346,-189,18,1017.39,67.3,0
"2017-06-11 06:55:21+00",10.2,11.2,,68.2,-381,-236,17,1017.47,67.2,0
"2017-06-11 07:00:21+00",10.3,11.3,,68.2,-346,-273,8,1017.33,67.1,0
"2017-06-11 07:05:21+00",10.3,11.3,,68.2,-329,-304,4,1017.22,67,0
"2017-06-11 07:10:21+00",10.4,11.4,,68.1,-337,-293,4,1017.22,67,0
"2017-06-11 07:15:21+00",9.1,10.1,,68,-299,-245,4,1017.12,66.9,0
"2017-06-11 07:20:21+00",9.0,10.0,,67.9,-293,-253,0,1017.13,66.8,0
"2017-06-11 07:25:21+00",8.3,9.3,,67.8,-275,-227,2,1017.11,66.8,0
"2017-06-11 07:30:21+00",7.8,8.8,,67.7,-264,-204,10,1017.13,66.7,0
"2017-06-11 07:35:21+00",7.7,8.7,,67.6,-254,-205,9,1017.19,66.5,0
"2017-06-11 07:40:21+00",7.1,7.1,,67.7,-249,-178,9,1017.07,66.4,0
"2017-06-11 07:45:21+00",7.2,8.2,,67.7,-250,-179,8,1017.1,66.3,0
"2017-06-11 07:50:21+00",7.3,8.3,,67.7,-240,-197,8,1017.13,66.2,0
"2017-06-11 07:55:21+00",6.8,7.8,,67.7,-226,-180,6,1017.17,66.1,0
"2017-06-11 08:00:21+00",6.3,7.3,,67.7,-200,-173,1,1017.12,66,0
"2017-06-11 08:05:21+00",5.3,6.3,,67.6,-162,-169,5,1017.1,65.9,0
"2017-06-11 08:10:21+00",5.0,6.0,,67.4,-154,-165,-1,1017.09,65.7,0
"2017-06-11 08:15:21+00",4.2,6.2,,67.1,-118,-136,0,1017.19,65.5,0
"2017-06-11 08:20:21+00",4.0,4.0,,67,-117,-130,3,1017.25,65.4,0
"2017-06-11 08:25:21+00",4.7,4.7,,66.9,-129,-167,-1,1017.25,65.3,0
"2017-06-11 08:30:21+00",5.1,6.1,,67,-133,-182,-2,1017.24,65.2,0
"2017-06-11 08:35:21+00",5.7,5.7,,67.1,-150,-199,-1,1017.19,65.2,0
"2017-06-11 08:40:21+00",5.3,5.3,,67.2,-153,-180,-1,1017.23,65.2,0
"2017-06-11 08:45:21+00",5.2,5.2,,67.1,-164,-169,1,1017.29,65.1,0
"2017-06-11 08:50:21+00",5.7,6.7,,67.1,-182,-160,3,1017.32,65,0
"2017-06-11 08:55:21+00",6.8,7.8,,67.3,-227,-176,4,1017.41,64.9,0
"2017-06-11 09:00:21+00",7.1,7.1,,67.4,-255,-169,11,1017.44,64.8,0
"2017-06-11 09:05:21+00",7.8,8.8,,67.6,-299,-171,8,1017.49,64.8,0
"2017-06-11 09:10:21+00",7.8,8.8,,67.8,-323,-166,10,1017.48,64.8,0
"2017-06-11 09:15:21+00",7.4,8.4,,68,-299,-159,15,1017.45,64.9,0
"2017-06-11 09:20:21+00",6.5,7.5,,67.7,-277,-137,10,1017.51,64.9,0
"2017-06-11 09:25:21+00",6.8,7.8,,67.7,-283,-128,14,1017.52,65,0
"2017-06-11 09:30:21+00",7.1,8.1,,67.8,-313,-124,15,1017.65,65,0
"2017-06-11 09:35:21+00",6.5,7.5,,68,-291,-129,11,1017.62,65.1,0
"2017-06-11 09:40:21+00",7.7,8.7,,68,-296,-173,15,1017.7,65.2,0
"2017-06-11 09:45:21+00",8.3,9.3,,67.9,-300,-200,11,1017.75,65.3,0
"2017-06-11 09:50:21+00",7.6,8.6,,67.9,-248,-207,6,1017.89,65.4,0
"2017-06-11 09:55:21+00",7.3,8.3,,67.7,-235,-219,2,1017.93,65.6,0
"2017-06-11 10:00:21+00",7.4,10.4,,67.7,-257,-190,4,1018.01,65.7,0
"2017-06-11 10:05:21+00",7.1,8.1,,67.6,-265,-162,6,1017.98,65.8,0
"2017-06-11 10:10:21+00",6.2,7.2,,67.6,-207,-162,8,1018.08,66,0.5
"2017-06-11 10:15:21+00",6.5,7.5,,67.7,-231,-170,15,1018.16,66.2,1.6
"2017-06-11 10:20:21+00",6.8,7.8,,67.8,-234,-172,10,1018.18,66.6,5.2
"2017-06-11 10:25:21+00",6.8,7.8,,67.9,-235,-172,11,1018.27,67.2,11.5
"2017-06-11 10:30:21+00",6.3,8.3,,68.2,-216,-168,27,1018.22,67.8,17.4
"2017-06-11 10:35:21+00",6.2,7.2,,68.2,-220,-155,13,1018.22,68.5,23.5
"2017-06-11 10:40:21+00",7.3,9.3,,68.5,-278,-176,18,1018.19,69.1,32.2
"2017-06-11 10:45:21+00",7.9,9.9,,68.7,-284,-202,22,1018.14,69.8,39.5
"2017-06-11 10:50:21+00",8.1,10.1,,68.9,-304,-194,17,1018.25,70.5,49.6
"2017-06-11 10:55:21+00",8.6,9.6,,69.2,-308,-216,8,1018.25,71.1,57.9
"2017-06-11 11:00:21+00",9.6,11.6,,69.2,-305,-279,1,1018.3,71.5,68.3
"2017-06-11 11:05:21+00",9.2,10.2,,69.1,-311,-244,11,1018.34,71.8,77.1
"2017-06-11 11:10:21+00",8.9,9.9,,69.3,-332,-212,16,1018.35,72.3,85.7
"2017-06-11 11:15:21+00",8.9,9.9,,69.6,-338,-211,31,1018.36,72.8,94.1
"2017-06-11 11:20:21+00",10.1,11.1,,69.7,-411,-210,-3,1018.41,73.2,102.8
"2017-06-11 11:25:21+00",9.5,10.5,,69.9,-354,-231,14,1018.35,73.6,112.5
"2017-06-11 11:30:21+00",10.0,11.0,,70.2,-377,-230,-7,1018.36,74.1,122.6
"2017-06-11 11:35:21+00",8.9,9.9,,70.7,-325,-227,44,1018.39,74.5,133
"2017-06-11 11:40:21+00",9.9,10.9,,70.7,-344,-263,19,1018.39,74.7,142.4
"2017-06-11 11:45:21+00",9.6,10.6,,70.9,-348,-238,7,1018.31,74.9,152.4
"2017-06-11 11:50:21+00",8.3,9.3,,71.4,-311,-199,22,1018.36,75.5,161
"2017-06-11 11:55:21+00",7.1,8.1,,71.7,-212,-237,21,1018.43,75.5,169.5
"2017-06-11 12:00:21+00",8.1,10.1,,72,-260,-246,8,1018.51,75.6,180.1
"2017-06-11 12:05:21+00",8.6,9.6,,72.3,-324,-203,10,1018.56,76.1,188.8
"2017-06-11 12:10:21+00",7.0,9.0,,73.3,-290,-69,32,1018.47,76.9,196.4
"2017-06-11 12:15:21+00",9.6,10.6,,74.2,-403,-68,32,1018.51,77.2,204.6
"2017-06-11 12:20:21+00",10.6,11.6,,74.6,-436,-105,21,1018.53,77.2,203.6
"2017-06-11 12:25:21+00",10.0,12.0,,74.7,-421,-85,32,1018.54,77.2,218.8
"2017-06-11 12:30:21+00",10.3,11.3,,74.9,-426,-92,9,1018.58,77.2,226.3
"2017-06-11 12:35:21+00",9.3,10.3,,75.2,-413,-150,47,1018.65,77.4,234.7
"2017-06-11 12:40:21+00",11.1,12.1,,75.4,-471,-84,21,1018.61,78,225.4
"2017-06-11 12:45:21+00",10.8,11.8,,75.8,-459,-74,19,1018.62,78.1,250.3
"2017-06-11 12:50:21+00",10.4,11.4,,76,-445,-70,7,1018.57,78.3,257.6
"2017-06-11 12:55:21+00",8.9,9.9,,76.7,-381,-24,27,1018.65,78.7,265.2
"2017-06-11 13:00:21+00",9.2,11.2,,77.1,-384,-75,22,1018.66,79.4,272.5
"2017-06-11 13:05:21+00",8.6,9.6,,77.1,-374,-67,33,1018.62,79.9,281
"2017-06-11 13:10:21+00",8.6,9.6,,77.5,-379,69,40,1018.68,80.3,291.8
"2017-06-11 13:15:21+00",9.3,10.3,,77.9,-399,77,27,1018.58,80.1,302.9
"2017-06-11 13:20:21+00",10.2,11.2,,77.7,-436,143,26,1018.57,79.8,311.2
"2017-06-11 13:25:21+00",10.1,12.1,,77.8,-447,86,25,1018.67,79.5,319.4
"2017-06-11 13:30:21+00",9.7,10.7,,77.9,-423,125,39,1018.76,79.4,329.8
"2017-06-11 13:35:21+00",9.6,11.6,,78.3,-398,155,39,1018.75,79.4,337.6
"2017-06-11 13:40:21+00",8.8,9.8,,78.6,-364,135,66,1018.76,79.8,344.9
"2017-06-11 13:45:21+00",10.6,11.6,,78.7,-466,105,26,1018.74,80,353.4
"2017-06-11 13:50:21+00",10.7,11.7,,78.8,-460,116,35,1018.74,80.2,363.4
"2017-06-11 13:55:21+00",10.2,11.2,,79.2,-447,106,28,1018.78,80.3,375.7
"2017-06-11 14:00:21+00",9.2,10.2,,79.4,-392,121,27,1018.75,80.6,381.3
"2017-06-11 14:05:21+00",9.2,11.2,,79.6,-408,69,21,1018.8,81,389.9
"2017-06-11 14:10:21+00",7.7,8.7,,80,-343,57,46,1018.79,81.4,400.8
"2017-06-11 14:15:21+00",10.2,12.2,,80.2,-447,71,18,1018.73,81.7,409.4
"2017-06-11 14:20:21+00",9.6,10.6,,80.6,-423,55,33,1018.65,81.9,419
"2017-06-11 14:25:21+00",8.9,9.9,,80.6,-383,99,46,1018.63,82.1,426.9
"2017-06-11 14:30:21+00",9.4,10.4,,80.9,-419,57,35,1018.59,82.3,435.1
"2017-06-11 14:35:21+00",9.6,10.6,,81.4,-421,63,25,1018.48,82.5,443
"2017-06-11 14:40:21+00",9.5,10.5,,81.8,-423,42,43,1018.48,82.8,451.2
"2017-06-11 14:45:21+00",11.4,12.4,,82.1,-484,-69,4,1018.49,82.9,458.5
"2017-06-11 14:50:21+00",8.9,9.9,,82.3,-395,76,51,1018.51,83.3,465
"2017-06-11 14:55:21+00",9.2,11.2,,82.6,-407,-9,35,1018.34,83.5,473.2
"2017-06-11 15:00:21+00",9.2,10.2,,82.6,-398,-17,29,1018.39,83.5,481.9
"2017-06-11 15:05:21+00",9.7,10.7,,82.8,-420,100,19,1018.34,83.7,490.8
"2017-06-11 15:10:21+00",10.6,11.6,,83,-467,44,19,1018.3,83.8,497.5
"2017-06-11 15:15:21+00",8.9,10.9,,83.2,-394,73,45,1018.26,84,502.3
"2017-06-11 15:20:21+00",8.2,9.2,,83.3,-358,71,56,1018.3,84.1,507.5
"2017-06-11 15:25:21+00",9.5,10.5,,83.3,-413,87,29,1018.22,84.3,516.1
"2017-06-11 15:30:21+00",8.3,9.3,,83.5,-365,104,33,1018.15,84.4,521
"2017-06-11 15:35:21+00",10.8,12.8,,83.6,-475,117,20,1018.23,84.3,530.8
"2017-06-11 15:40:21+00",10.8,12.8,,83.7,-458,156,32,1018.29,84.4,536.6
"2017-06-11 15:45:21+00",10.7,10.7,,83.9,-457,133,30,1018.23,84.5,542.9
"2017-06-11 15:50:21+00",10.7,11.7,,83.9,-473,118,33,1018.19,84.6,542.6
"2017-06-11 15:55:21+00",10.4,11.4,,84,-447,147,38,1018.17,84.7,550.2
"2017-06-11 16:00:21+00",9.5,10.5,,84.4,-413,71,25,1018.23,84.8,554.6
"2017-06-11 16:05:21+00",8.0,9.0,,84.5,-343,76,23,1018.17,85.2,558.6
"2017-06-11 16:10:21+00",8.0,8.0,,84.6,-342,97,36,1018.19,85.5,561.9
"2017-06-11 16:15:21+00",8.3,10.3,,84.7,-366,86,24,1018.12,85.9,559.5
"2017-06-11 16:20:21+00",5.9,6.9,,85,-251,58,30,1018.2,86.3,558.4
"2017-06-11 16:25:21+00",4.7,5.7,,85.1,-193,39,33,1018.1,87,554.8
"2017-06-11 16:30:21+00",7.8,9.8,,82.6,10,-323,-1,1018.07,85.1,542.6
"2017-06-11 16:35:21+00",6.1,7.1,,81.3,4,-245,-1,1017.96,83.7,517.1
"2017-06-11 16:40:21+00",7.7,9.7,,81.4,86,-311,6,1017.98,83.7,511.2
"2017-06-11 16:45:21+00",8.0,9.0,,80.6,44,-345,-3,1017.91,83,513.5
"2017-06-11 16:50:21+00",8.6,10.6,,80.7,71,-361,-1,1018.03,83,478.4
"2017-06-11 16:55:21+00",9.6,11.6,,80,51,-410,-10,1017.98,82.3,517.7
"2017-06-11 17:00:21+00",10.4,11.4,,79.2,104,-428,-18,1018.02,81.9,423
"2017-06-11 17:05:21+00",8.7,10.7,,78.3,67,-360,16,1017.9,81.1,517
"2017-06-11 17:10:21+00",13.4,16.4,,77.3,126,-559,-28,1017.91,80.3,521
"2017-06-11 17:15:21+00",11.3,14.3,,76.2,116,-464,2,1017.96,79.2,517.7
"2017-06-11 17:20:21+00",10.5,13.5,,77.4,64,-435,4,1017.88,79.8,526.6
"2017-06-11 17:25:21+00",11.9,14.9,,78.5,-14,-497,-21,1017.83,80.3,529.4
"2017-06-11 17:30:21+00",12.4,15.4,,78.2,54,-535,-20,1017.79,80,526.6
"2017-06-11 17:35:21+00",10.9,16.9,,78.1,15,-449,-10,1017.72,80,531.9
"2017-06-11 17:40:21+00",13.1,18.1,,80.2,-132,-551,-2,1017.68,81.6,525.7
"2017-06-11 17:45:21+00",16.3,20.3,,81.4,-179,-683,-13,1017.6,82.8,524.5
"2017-06-11 17:50:21+00",15.4,20.4,,81.5,-157,-640,0,1017.71,83.3,514.1
"2017-06-11 17:55:21+00",12.0,15.0,,81,-95,-497,29,1017.65,82.9,490.3
"2017-06-11 18:00:21+00",14.9,16.9,,80.9,-181,-611,-18,1017.61,82.8,491
"2017-06-11 18:05:21+00",10.2,15.2,,81.4,-116,-416,31,1017.58,83.3,481.2
"2017-06-11 18:10:21+00",11.3,16.3,,81.7,-86,-462,10,1017.36,83.6,529.1
"2017-06-11 18:15:21+00",18.0,20.0,,81.6,-174,-763,-39,1017.37,83.5,511.7
"2017-06-11 18:20:21+00",12.7,16.7,,81.9,-161,-511,25,1017.28,83.6,516.6
"2017-06-11 18:25:21+00",14.5,17.5,,81.4,-160,-594,6,1017.19,83.5,502
"2017-06-11 18:30:21+00",10.5,13.5,,82.6,-134,-431,21,1017.18,84.2,479.6
"2017-06-11 18:35:21+00",13.1,18.1,,83.2,-130,-534,24,1017.23,84.9,485.7
"2017-06-11 18:40:21+00",17.2,20.2,,83,-174,-721,-28,1017.18,84.8,480
"2017-06-11 18:45:21+00",15.2,18.2,,81.9,-113,-640,-21,1017.06,83.9,474.9
"2017-06-11 18:50:21+00",16.4,19.4,,82.5,-197,-674,-14,1017.06,84.1,500.3
"2017-06-11 18:55:21+00",15.8,19.8,,82.3,-148,-648,-20,1016.97,83.9,501.7
"2017-06-11 19:00:21+00",15.2,21.2,,83.4,-194,-621,6,1016.97,84.7,492.5
"2017-06-11 19:05:21+00",17.4,22.4,,83.8,-247,-718,-15,1016.83,85.3,486.7
"2017-06-11 19:10:21+00",18.3,22.3,,83.5,-250,-755,-14,1016.81,85.2,474.5
"2017-06-11 19:15:21+00",15.4,20.4,,83.3,-196,-631,9,1016.86,85.1,465.9
"2017-06-11 19:20:21+00",18.4,22.4,,83.6,-294,-745,-11,1016.85,85.3,464.5
"2017-06-11 19:25:21+00",14.5,19.5,,83.7,-194,-591,29,1016.77,85.3,458.1
"2017-06-11 19:30:21+00",18.7,22.7,,83.9,-222,-765,-28,1016.75,85.5,449.4
"2017-06-11 19:35:21+00",17.6,20.6,,83.9,-176,-733,-25,1016.74,85.7,438.5
"2017-06-11 19:40:21+00",16.0,22.0,,84,-218,-654,-22,1016.75,85.6,432.9
"2017-06-11 19:45:21+00",19.1,22.1,,83.8,-324,-768,-15,1016.64,85.6,422
"2017-06-11 19:50:21+00",13.7,18.7,,83.5,-179,-567,16,1016.7,85.5,416.6
"2017-06-11 19:55:21+00",14.9,18.9,,83.4,-236,-611,0,1016.55,85.3,409.6
"2017-06-11 20:00:21+00",13.2,17.2,,83.6,-192,-532,-19,1016.44,85.4,399.2
"2017-06-11 20:05:21+00",15.9,20.9,,83.7,-154,-658,-16,1016.33,85.6,388.4
"2017-06-11 20:10:21+00",16.1,19.1,,83.7,-263,-646,3,1016.28,85.6,383.1
"2017-06-11 20:15:21+00",18.2,22.2,,83.7,-315,-721,-22,1016.2,85.5,370.2
"2017-06-11 20:20:21+00",16.4,20.4,,83.6,-255,-658,-2,1016.25,85.4,364.4
"2017-06-11 20:25:21+00",13.8,18.8,,84.1,-179,-561,4,1016.34,85.6,330.8
"2017-06-11 20:30:21+00",17.7,20.7,,84.1,-352,-692,-7,1016.4,85.6,46.2
"2017-06-11 20:35:21+00",17.2,26.2,,84.2,-291,-693,-5,1016.31,85.7,12.8
"2017-06-11 20:40:21+00",19.0,23.0,,83.5,-317,-754,1,1016.3,85.1,12.9
"2017-06-11 20:45:21+00",21.8,24.8,,82.9,-402,-852,-23,1016.45,84.5,11.5
"2017-06-11 20:50:21+00",19.1,23.1,,82.8,-428,-726,-12,1016.39,84.3,11.4
"2017-06-11 20:55:21+00",21.5,24.5,,82.9,-461,-823,-6,1016.43,84.3,13.4
"2017-06-11 21:00:21+00",18.7,22.7,,82.8,-452,-710,19,1016.42,84.4,275.9
"2017-06-11 21:05:21+00",24.0,27.0,,82.4,-637,-878,-12,1016.43,84.1,266
"2017-06-11 21:10:21+00",20.2,24.2,,82.1,-620,-674,9,1016.47,84.1,273.1
"2017-06-11 21:15:21+00",22.3,26.3,,81.5,-634,-791,19,1016.54,83.7,198.1
"2017-06-11 21:20:21+00",24.1,27.1,,80.8,-665,-872,-7,1016.52,83.2,9.2
"2017-06-11 21:25:21+00",24.7,28.7,,80.3,-716,-872,14,1016.48,82.3,233.5
"2017-06-11 21:30:21+00",20.6,25.6,,80.2,-599,-739,23,1016.52,82,242.3
"2017-06-11 21:35:21+00",20.1,23.1,,79.9,-595,-700,4,1016.49,81.7,230.1
"2017-06-11 21:40:21+00",19.1,24.1,,79.9,-525,-705,20,1016.52,81.5,224.1
"2017-06-11 21:45:21+00",20.0,25.0,,80.1,-551,-730,25,1016.55,81.6,213.9
"2017-06-11 21:50:21+00",19.0,25.0,,80.1,-577,-653,33,1016.5,81.7,201.7
"2017-06-11 21:55:21+00",20.7,23.7,,80,-622,-714,13,1016.56,81.6,195.2
"2017-06-11 22:00:21+00",16.9,18.9,,80.1,-495,-600,52,1016.62,81.7,186.6
"2017-06-11 22:05:21+00",21.0,26.0,,79.9,-637,-715,10,1016.69,81.6,176.4
"2017-06-11 22:10:21+00",19.5,22.5,,79.9,-596,-661,29,1016.71,81.5,167.9
"2017-06-11 22:15:21+00",20.1,23.1,,80,-602,-684,-21,1016.7,81.5,142.1
"2017-06-11 22:20:21+00",20.4,23.4,,80.1,-643,-676,17,1016.74,81.5,148.7
"2017-06-11 22:25:21+00",19.7,22.7,,80.3,-593,-677,11,1016.73,81.6,138
"2017-06-11 22:30:21+00",19.0,21.0,,80.2,-572,-655,9,1016.7,81.5,113.6
"2017-06-11 22:35:21+00",18.7,21.7,,80.2,-533,-660,-7,1016.68,81.4,118.7
"2017-06-11 22:40:21+00",15.9,18.9,,80,-479,-547,14,1016.81,81.3,108.5
"2017-06-11 22:45:21+00",17.8,20.8,,80,-557,-583,27,1016.81,81.3,99.4
"2017-06-11 22:50:21+00",16.6,18.6,,79.7,-511,-552,14,1016.78,81.1,87.5
"2017-06-11 22:55:21+00",16.9,18.9,,79.3,-552,-498,7,1016.76,81,79.2
"2017-06-11 23:00:21+00",16.2,18.2,,79.2,-569,-428,19,1016.84,80.8,67.2
"2017-06-11 23:05:21+00",17.5,19.5,,79,-584,-488,20,1016.83,80.7,58.9
"2017-06-11 23:10:21+00",15.0,18.0,,78.9,-505,-419,8,1016.79,80.6,48.2
"2017-06-11 23:15:21+00",14.4,17.4,,78.7,-478,-423,15,1016.76,80.5,32.5
"2017-06-11 23:20:21+00",13.7,16.7,,78.5,-457,-402,37,1016.67,80.3,13.7
"2017-06-11 23:25:21+00",14.6,17.6,,78.1,-504,-399,31,1016.62,80,16.5
"2017-06-11 23:30:21+00",14.8,17.8,,77.7,-515,-399,15,1016.61,79.6,14.2
"2017-06-11 23:35:21+00",15.6,18.6,,77.4,-509,-478,19,1016.56,79,7.9
"2017-06-11 23:40:21+00",15.5,18.5,,77,-498,-482,12,1016.48,78.4,2.3
"2017-06-11 23:45:21+00",15.0,17.0,,76.5,-477,-466,4,1016.53,77.8,0.6
"2017-06-11 23:50:21+00",11.2,13.2,,76.2,-351,-364,13,1016.6,77.4,0
"2017-06-11 23:55:21+00",11.7,13.7,,76,-351,-402,11,1016.48,77,0
